This is the latest recevied weather packets stored in our database for station/object K5GTX. If no packets are shown the sender has not sent any weather packets the latest 10 day(s).
| Time | Temp. | Humidity | Pressure | Rain* | Wind** | Luminosity | Snow |
|---|---|---|---|---|---|---|---|
| 1777839576 | 27.78° C | 99% | 1024.2 hPa | 0 mm | - | 114 W/m² | - |
| 1777839273 | 27.78° C | 99% | 1023.9 hPa | 0 mm | - | 659 W/m² | - |
| 1777838970 | 27.78° C | 99% | 1024.2 hPa | 0 mm | - | 669 W/m² | - |
| 1777838666 | 27.78° C | 99% | 1024.2 hPa | 0 mm | - | 347 W/m² | - |
| 1777838363 | 27.78° C | 99% | 1024.3 hPa | 0 mm | - | 164 W/m² | - |
| 1777838061 | 27.22° C | 99% | 1024.7 hPa | 0 mm | - | 380 W/m² | - |
| 1777837757 | 27.22° C | 99% | 1024.4 hPa | 0 mm | - | 662 W/m² | - |
| 1777837453 | 27.22° C | 99% | 1024.7 hPa | 0 mm | - | 597 W/m² | - |
| 1777837149 | 27.22° C | 99% | 1024.6 hPa | 0 mm | - | 733 W/m² | - |
| 1777836845 | 27.78° C | 99% | 1024.8 hPa | 0 mm | - | 712 W/m² | - |
| 1777836540 | 27.78° C | 99% | 1024.9 hPa | 0 mm | - | 620 W/m² | - |
| 1777836236 | 27.78° C | 99% | 1024.9 hPa | 0 mm | - | 539 W/m² | - |
| 1777835933 | 27.78° C | 99% | 1025.2 hPa | 0 mm | - | 535 W/m² | - |
| 1777835630 | 26.67° C | 99% | 1025.2 hPa | 0 mm | - | 702 W/m² | - |
| 1777835327 | 27.22° C | 99% | 1025.1 hPa | 0 mm | - | 579 W/m² | - |
| 1777835024 | 27.22° C | 99% | 1025.1 hPa | 0 mm | - | 561 W/m² | - |
| 1777834721 | 27.22° C | 99% | 1025.1 hPa | 0 mm | - | 612 W/m² | - |
| 1777834417 | 26.67° C | 99% | 1025.2 hPa | 0 mm | - | 599 W/m² | - |
| 1777834117 | 26.67° C | 99% | 1025.5 hPa | 0 mm | - | 125 W/m² | - |
| 1777833813 | 26.11° C | 99% | 1025.6 hPa | 0 mm | - | 609 W/m² | - |
| 1777833509 | 27.22° C | 99% | 1025.7 hPa | 0 mm | - | 418 W/m² | - |
| 1777833206 | 26.67° C | 99% | 1025.9 hPa | 0 mm | - | 524 W/m² | - |
| 1777832904 | 26.67° C | 99% | 1026.1 hPa | 0 mm | - | 666 W/m² | - |
| 1777832603 | 26.67° C | 99% | 1025.9 hPa | 0 mm | - | 629 W/m² | - |
| 1777832300 | 26.11° C | 99% | 1026.1 hPa | 0 mm | - | 717 W/m² | - |
* Rain latest hour (hover to see other rain measurements)
** Current wind speed in m/s (hover to see current wind gust speed)